カタログに戻る

COSMOS 839 DEB

運用中UNKNOWN
NORAD 10454·DEBRIS·🇷🇺 Russia

打ち上げ Jul 8, 1976 から Plesetsk Cosmodrome

Loading…

次のパス (今後24時間)

TLE

最新Source: Space-Track

元期: Sep 14, 2026, 13:38 UTC

1 10454U 76067AF  26257.56837273  .00000074  00000-0  29688-3 0  9990
2 10454  65.6633 312.6882 0734943 183.1578 176.4642 12.55387226293407

AllMySatでCOSMOS 839 DEBをリアルタイム追跡

Download on the App Store